This is the latest recevied weather packets stored in our database for station/object DC0VZ-6. If no packets are shown the sender has not sent any weather packets the latest 10 day(s).
| Time | Temp. | Humidity | Pressure | Rain* | Wind** | Luminosity | Snow |
|---|---|---|---|---|---|---|---|
| 1778179571 | 13.33° C | 30% | 983.1 hPa | 0 mm | - | - | - |
| 1778178971 | 13.89° C | 30% | 982.9 hPa | 0 mm | - | - | - |
| 1778178371 | 13.89° C | 30% | 982.9 hPa | 0 mm | - | - | - |
| 1778177771 | 14.44° C | 30% | 982.8 hPa | 0 mm | - | - | - |
| 1778177170 | 14.44° C | 30% | 982.8 hPa | 0 mm | - | - | - |
| 1778176570 | 14.44° C | 30% | 982.9 hPa | 0 mm | - | - | - |
| 1778175970 | 15° C | 30% | 982.9 hPa | 0 mm | - | - | - |
| 1778175370 | 15° C | 30% | 982.7 hPa | 0 mm | - | - | - |
| 1778174770 | 15° C | 30% | 982.7 hPa | 0 mm | - | - | - |
| 1778174170 | 15.56° C | 30% | 982.8 hPa | 0 mm | - | - | - |
| 1778173570 | 15.56° C | 30% | 982.8 hPa | 0 mm | - | - | - |
| 1778172970 | 15.56° C | 30% | 982.9 hPa | 0 mm | - | - | - |
| 1778172370 | 16.11° C | 32% | 982.9 hPa | 0 mm | - | - | - |
| 1778171770 | 16.11° C | 30% | 982.9 hPa | 0 mm | - | - | - |
| 1778171170 | 15.56° C | 30% | 982.9 hPa | 0 mm | - | - | - |
| 1778170570 | 15.56° C | 30% | 983 hPa | 0 mm | - | - | - |
| 1778169969 | 15.56° C | 30% | 983 hPa | 0 mm | - | - | - |
| 1778169369 | 16.11° C | 32% | 983.2 hPa | 0 mm | - | - | - |
| 1778168769 | 16.11° C | 32% | 983.2 hPa | 0 mm | - | - | - |
| 1778168174 | 16.11° C | 33% | 983.6 hPa | 0 mm | - | - | - |
| 1778167574 | 16.11° C | 33% | 983.6 hPa | 0 mm | - | - | - |
| 1778166974 | 16.67° C | 34% | 983.6 hPa | 0 mm | - | - | - |
| 1778166374 | 16.67° C | 34% | 983.6 hPa | 0 mm | - | - | - |
| 1778165774 | 16.67° C | 35% | 983.8 hPa | 0 mm | - | - | - |
| 1778165174 | 17.22° C | 35% | 983.8 hPa | 0 mm | - | - | - |
* Rain latest hour (hover to see other rain measurements)
** Current wind speed in m/s (hover to see current wind gust speed)